Location: Deer Path Park
(40.5570°N, 74.8450°W)
Time: 18:46:59
(UTC-04:00)

Iridium 49 - Visible Passes

Search period start: 25 July 2017 00:00
Search period end: 04 August 2017 00:00
Orbit: 776 x 779 km, 86.4° (Epoch: 25 July)

Date Brightness Start Highest point End Pass type
(mag) Time Alt. Az. Time Alt. Az. Time Alt. Az.
25 Jul 6.3 20:54:37 10° S 20:59:49 78° W 21:05:04 10° N visible
26 Jul 8.8 22:04:16 10° WSW 22:07:27 16° WNW 22:10:39 10° NW visible
27 Jul 8.1 21:29:09 10° SW 21:33:38 29° W 21:38:09 10° NNW visible
28 Jul 6.9 20:54:53 10° SSW 20:59:57 53° W 21:05:04 10° N visible
29 Jul 9.2 22:06:28 10° W 22:07:48 11° WNW 22:09:10 10° NW visible
30 Jul 8.7 21:30:04 10° SW 21:33:53 20° WNW 21:37:45 10° NNW visible
31 Jul 7.7 20:55:21 10° SSW 21:00:08 36° W 21:04:57 10° NNW visible
02 Aug 9.0 21:31:29 10° WSW 21:34:12 14° WNW 21:36:56 10° NW visible
03 Aug 8.5 20:56:04 10° SW 21:00:21 26° WNW 21:04:41 10° NNW visible
